Location: Moulis
(42.9609°N, 1.0909°E)
Time: 16:22:50
(UTC+00:00)

YAOGAN 1 - Pass Details

Date: 11 December 2025
Orbit: 605 x 607 km, 97.8° (Epoch: 22 January)

Event Time Altitude Azimuth Distance (km) Brightness Sun altitude
Rises 18:27:19 0° 169° (S) 2,851 6.0 -22.2°
Reaches altitude 10° 18:29:29 10° 171° (S) 1,952 5.1 -22.6°
Maximum altitude 18:33:43 78° 257° (WSW) 627 2.6 -23.4°
Drops below altitude 10° 18:38:00 10° 345° (NNW) 1,968 5.2 -24.2°
Sets 18:40:12 0° 347° (NNW) 2,877 6.0 -24.6°
